Rochester, NH

8:58 AM EDT on July 21, 2017 (GMT -0400)
Skyhaven

Weather History for KDAW - January, 2014

Change the Weather History Date:

Thursday, January 23, 2014

  Actual Average (KPSM) Record (KPSM)
Temperature  
Mean Temperature 9 °F -  
Max Temperature 18 °F 28 °F 51 °F (2002)
Min Temperature 0 °F 12 °F -12 °F (1976)
Degree Days  
Heating Degree Days 56    
Moisture  
Dew Point -8 °F    
Average Humidity 51    
Maximum Humidity 66    
Minimum Humidity 36    
Precipitation  
Precipitation 0.00 in - - ()
Sea Level Pressure  
Sea Level Pressure 29.97 in    
Wind  
Wind Speed 4 mph (WNW)    
Max Wind Speed 12 mph    
Max Gust Speed 18 mph    
Visibility 10 miles    
Events      
Averages and records for this station are not official NWS values.
T = Trace of Precipitation, MM = Missing Value Source: NWS Daily Summary

Daily Weather History Graph

Daily Weather History Graph

Search for Another Location

Airport or City:

Trip Planner

Search our weather history database for the weather conditions in past years. The results will help you decide how hot, cold, wet, or windy it might be!

Date:

Astronomy

Jan. 23, 2014 Rise Set
Actual Time 7:07 AM EST 4:43 PM EST
Civil Twilight 6:36 AM EST 5:14 PM EST
Nautical Twilight 6:02 AM EST 5:49 PM EST
Astronomical Twilight 5:28 AM EST 6:23 PM EST
Moon No Moon Rise 10:28 AM EST (1/23)
Length of Visible Light 10h 37m
Length of Day
9h 35m
Waning Gibbous, 55% of the Moon is Illuminated
Jan 23
Waning Gibbous
Jan 24
Last Quarter
Jan 30
New
Feb 6
First Quarter
Feb 14
Full

Hourly Weather History & Observations

Time (EST) Temp. Windchill Dew Point Humidity Pressure Visibility Wind Dir Wind Speed Gust Speed Precip Events Conditions
12:51 AM 1.0 °F -6.7 °F -9.9 °F 60% 29.85 in 10.0 mi WNW 3.5 mph - N/A   Clear
1:51 AM 1.0 °F -8.7 °F -11.0 °F 57% 29.87 in 10.0 mi WNW 4.6 mph - N/A   Clear
2:51 AM -0.0 °F -11.6 °F -9.9 °F 63% 29.88 in 10.0 mi WNW 5.8 mph - N/A   Clear
3:51 AM -0.9 °F - -9.9 °F 66% 29.89 in 10.0 mi Calm Calm - N/A   Clear
4:51 AM -0.0 °F - -9.9 °F 63% 29.89 in 10.0 mi Calm Calm - N/A   Clear
5:51 AM -0.9 °F - -9.9 °F 66% 29.92 in 10.0 mi Calm Calm - N/A   Clear
6:51 AM -0.9 °F - -9.9 °F 66% 29.94 in 10.0 mi Calm Calm - N/A   Clear
7:51 AM 1.0 °F - -9.0 °F 63% 29.94 in 10.0 mi Calm Calm - N/A   Clear
8:51 AM 1.9 °F -7.6 °F -9.0 °F 60% 29.96 in 10.0 mi NW 4.6 mph - N/A   Clear
9:51 AM 7.0 °F -1.7 °F -7.1 °F 53% 29.97 in 10.0 mi NW 4.6 mph - N/A   Clear
10:51 AM 10.9 °F 4.7 °F -6.0 °F 47% 29.96 in 10.0 mi WNW 3.5 mph - N/A   Partly Cloudy
11:51 AM 14.0 °F - -6.0 °F 41% 29.95 in 10.0 mi Calm Calm - N/A   Clear
12:51 PM 17.1 °F 8.7 °F -5.1 °F 37% 29.94 in 10.0 mi WNW 5.8 mph - N/A   Clear
1:51 PM 18.0 °F 8.7 °F -5.1 °F 36% 29.94 in 10.0 mi Variable 6.9 mph - N/A   Clear
2:51 PM 17.1 °F 7.6 °F -5.1 °F 37% 29.95 in 10.0 mi West 6.9 mph - N/A   Clear
3:51 PM 17.1 °F 7.6 °F -5.1 °F 37% 29.97 in 10.0 mi West 6.9 mph - N/A   Scattered Clouds
4:51 PM 15.1 °F 4.2 °F -5.1 °F 41% 30.01 in 10.0 mi WNW 8.1 mph 18.4 mph N/A   Mostly Cloudy
5:51 PM 12.9 °F -0.9 °F -7.1 °F 41% 30.03 in 10.0 mi WNW 11.5 mph 18.4 mph N/A   Partly Cloudy
6:51 PM 10.9 °F -0.8 °F -7.1 °F 44% 30.05 in 10.0 mi WNW 8.1 mph - N/A   Clear
7:51 PM 10.9 °F -2.6 °F -8.0 °F 42% 30.06 in 10.0 mi WNW 10.4 mph - N/A   Clear
8:51 PM 10.0 °F -1.9 °F -7.1 °F 46% 30.07 in 10.0 mi West 8.1 mph - N/A   Clear
9:51 PM 9.0 °F -2.2 °F -7.1 °F 48% 30.08 in 10.0 mi Variable 6.9 mph - N/A   Clear
10:51 PM 8.1 °F -3.2 °F -7.1 °F 50% 30.08 in 10.0 mi West 6.9 mph - N/A   Clear
11:51 PM 8.1 °F -5.3 °F -8.0 °F 48% 30.07 in 10.0 mi WNW 9.2 mph 18.4 mph N/A   Clear